This demonstration page uses our WeatherBlox Daily Observations layout. Learn more.

Left ArrowRight Arrow

40.92945, -100.16068

Hourly Observations for September 25, 2016

Temp ( °F °C ) Dew Point ( °F °C ) Humidity (%) Winds ( mph kmh ) Pressure ( in mb ) Visibility ( mi km ) Precip ( " mm )
12:15 am 00:15 Clear 57 14 43 6.3 60 60 NW 9 15 30.03 1017 10 16 N/A
12:35 am 00:35 Clear 55 12.7 44 6.4 66 66 NW 7 11 30.09 1019 10 16 N/A
12:55 am 00:55 Clear 55 12.7 43 6 64 64 NW 9 15 30.09 1019 10 16 N/A
1:15 am 01:15 Clear 55 12.6 42 5.7 63 63 NW 8 13 30.09 1019 10 16 N/A
1:35 am 01:35 Clear 55 12.7 42 5.5 62 62 NW 10 17 30.09 1019 10 16 N/A
1:55 am 01:55 Clear 55 12.5 42 5.5 63 63 NW 12 19 30.09 1019 10 16 N/A
2:15 am 02:15 Clear 54 12.2 42 5.3 63 63 NW 12 19 30.09 1019 10 16 N/A
2:35 am 02:35 Clear 52 11 42 5.6 70 70 WNW 8 13 30.15 1021 10 16 N/A
2:55 am 02:55 Clear 50 9.8 42 5.8 76 76 WNW 8 13 30.15 1021 10 16 N/A
3:15 am 03:15 Clear 50 9.9 42 5.7 75 75 WNW 9 15 30.15 1021 10 16 N/A
3:35 am 03:35 Clear 50 10 42 5.5 74 74 WNW 10 17 30.15 1021 10 16 N/A
3:55 am 03:55 Clear 50 10.1 42 5.5 73 73 WNW 12 19 30.15 1021 10 16 N/A
4:15 am 04:15 Clear 51 10.4 42 5.6 72 72 WNW 12 19 30.15 1021 10 16 N/A
4:35 am 04:35 Clear 50 10.1 42 5.6 74 74 WNW 9 15 30.15 1021 10 16 N/A
4:55 am 04:55 Clear 50 10 42 5.6 74 74 WNW 10 17 30.18 1022 10 16 N/A
5:15 am 05:15 Clear 49 9.7 42 5.7 76 76 WNW 9 15 30.18 1022 10 16 N/A
5:35 am 05:35 Clear 49 9.5 42 5.7 77 77 WNW 9 15 30.18 1022 10 16 N/A
5:55 am 05:55 Clear 50 10 42 5.8 75 75 NW 12 19 30.18 1022 10 16 N/A
6:15 am 06:15 Clear 51 10.3 42 5.8 74 74 NW 13 20 30.21 1023 10 16 N/A
6:35 am 06:35 Clear 50 10 42 5.7 75 75 NW 10 17 30.21 1023 10 16 N/A
6:55 am 06:55 Clear 50 10 42 5.8 75 75 NW 12 19 30.21 1023 10 16 N/A
7:15 am 07:15 Clear 49 9.6 42 5.8 77 77 NW 9 15 30.21 1023 10 16 N/A
7:35 am 07:35 Sunny 49 9.6 42 5.8 77 77 NW 9 15 30.24 1024 10 16 N/A
7:55 am 07:55 Sunny 50 10.2 43 6 75 75 NW 10 17 30.24 1024 10 16 N/A
8:15 am 08:15 Sunny 52 11 43 6.2 73 73 NW 9 15 30.24 1024 10 16 N/A
8:35 am 08:35 Sunny 53 11.7 44 6.5 71 71 NW 12 19 30.24 1024 10 16 N/A
8:55 am 08:55 Sunny 54 12.4 44 6.5 68 68 NW 14 22 30.21 1023 10 16 N/A
9:15 am 09:15 Sunny 56 13.4 44 6.6 64 64 NW 12 19 30.24 1024 10 16 N/A
9:35 am 09:35 Sunny 58 14.3 44 6.9 61 61 NW 15 24 30.24 1024 10 16 N/A
9:55 am 09:55 Sunny 60 15.5 45 7.1 58 58 NW 14 22 30.24 1024 10 16 N/A
10:15 am 10:15 Sunny 61 16.2 44 6.4 52 52 NNW 20 31 30.21 1023 10 16 N/A
10:35 am 10:35 Sunny 62 16.9 44 6.5 51 51 NW 21 33 30.21 1023 10 16 N/A
10:55 am 10:55 Sunny 63 17.4 43 6.2 48 48 NW 21 33 30.24 1024 10 16 N/A
11:15 am 11:15 Sunny 64 18 42 5.6 44 44 NW 21 33 30.24 1024 10 16 N/A
11:35 am 11:35 Sunny 65 18.2 41 4.8 41 41 NNW 21 33 30.24 1024 10 16 N/A
11:55 am 11:55 Sunny 66 18.7 41 5.1 41 41 NW 22 35 30.21 1023 10 16 N/A
12:15 pm 12:15 Sunny 66 19 39 3.7 36 36 NW 23 37 30.18 1022 10 16 N/A
12:35 pm 12:35 Sunny 67 19.4 38 3.2 34 34 NW 25 41 30.21 1023 10 16 N/A
12:55 pm 12:55 Sunny 67 19.6 36 2.4 32 32 NNW 22 35 30.18 1022 10 16 N/A
1:15 pm 13:15 Sunny 67 19.7 35 1.8 30 30 NW 18 30 30.18 1022 10 16 N/A
1:35 pm 13:35 Sunny 69 20.5 32 0.1 26 26 NNW 21 33 30.18 1022 10 16 N/A
1:55 pm 13:55 Sunny 69 20.8 32 0.2 25 25 NNW 20 31 30.18 1022 10 16 N/A
2:15 pm 14:15 Sunny 70 20.9 31 -0.7 24 24 NNW 17 28 30.18 1022 10 16 N/A
2:35 pm 14:35 Sunny 71 21.5 31 -0.5 23 23 NNW 15 24 30.18 1022 10 16 N/A
2:55 pm 14:55 Sunny 70 21 32 -0.2 24 24 NW 17 28 30.15 1021 10 16 N/A
3:15 pm 15:15 Sunny 70 21.2 29 -1.7 22 22 NNW 22 35 30.15 1021 10 16 N/A
3:35 pm 15:35 Sunny 71 21.5 30 -1 22 22 NW 18 30 30.15 1021 10 16 N/A
3:55 pm 15:55 Sunny 71 21.4 28 -2.5 20 20 NW 17 28 30.15 1021 10 16 N/A
4:15 pm 16:15 Sunny 70 21.3 22 -5.7 16 16 N 21 33 30.15 1021 10 16 N/A
4:35 pm 16:35 Sunny 71 21.5 23 -5.1 16 16 NNW 15 24 30.15 1021 10 16 N/A
4:55 pm 16:55 Sunny 71 21.5 22 -5.4 16 16 NNW 17 28 30.15 1021 10 16 N/A
5:15 pm 17:15 Sunny 70 21.2 23 -5 17 17 NW 15 24 30.15 1021 10 16 N/A
5:35 pm 17:35 Sunny 70 21 19 -7 15 15 NNW 14 22 30.15 1021 10 16 N/A
5:55 pm 17:55 Sunny 69 20.7 20 -6.5 15 15 NNW 14 22 30.15 1021 10 16 N/A
6:15 pm 18:15 Sunny 68 20.2 21 -6 17 17 NNW 13 20 30.18 1022 10 16 N/A
6:35 pm 18:35 Sunny 67 19.5 21 -5.9 17 17 NNW 13 20 30.18 1022 10 16 N/A
6:55 pm 18:55 Sunny 66 18.8 20 -6.7 17 17 NNW 10 17 30.21 1023 10 16 N/A
7:15 pm 19:15 Sunny 62 16.8 24 -4.3 23 23 NNW 7 11 30.21 1023 10 16 N/A
7:35 pm 19:35 Clear 60 15.6 24 -4.7 25 25 NNW 9 15 30.27 1025 10 16 N/A
7:55 pm 19:55 Clear 59 14.9 24 -4.7 26 26 NNW 8 13 30.27 1025 10 16 N/A
8:15 pm 20:15 Clear 55 12.7 26 -3.1 33 33 NNW 8 13 30.27 1025 10 16 N/A
8:35 pm 20:35 Clear 53 11.6 29 -1.9 39 39 NNW 6 9 30.30 1026 10 16 N/A
8:55 pm 20:55 Clear 52 10.9 31 -0.6 45 45 N 7 11 30.33 1027 10 16 N/A
9:15 pm 21:15 Clear 50 10 30 -1 47 47 N 6 9 30.33 1027 10 16 N/A
9:35 pm 21:35 Clear 48 9 30 -1.2 49 49 N 8 13 30.36 1028 10 16 N/A
9:55 pm 21:55 Clear 48 9 31 -0.6 51 51 N 5 7 30.36 1028 10 16 N/A
10:15 pm 22:15 Clear 49 9.2 29 -1.5 47 47 N 8 13 30.36 1028 10 16 N/A
10:35 pm 22:35 Clear 46 7.7 30 -1.3 53 53 N 8 13 30.36 1028 10 16 N/A
10:55 pm 22:55 Clear 45 7.3 31 -0.3 59 59 Calm 30.36 1028 10 16 N/A
11:15 pm 23:15 Clear 42 5.5 32 0 68 68 WSW 6 9 30.39 1029 10 16 N/A
11:35 pm 23:35 Clear 43 6.1 32 0 65 65 WSW 6 9 30.39 1029 10 16 N/A
11:55 pm 23:55 Clear 42 5.6 32 -0.1 67 67 W 6 9 30.39 1029 10 16 N/A

Powered by AerisWeather